Alliance, NE

11:57 AM MDT on June 20, 2019 (GMT -0600)
Alliance Municipal

Weather History for KAIA - May, 2019

Change the Weather History Date:

Tuesday, May 21, 2019

  Actual Average Record
Temperature  
Mean Temperature 36 °F -  
Max Temperature 39 °F 70 °F 92 °F (1964)
Min Temperature 33 °F 45 °F 25 °F (1931)
Degree Days  
Heating Degree Days 29    
Moisture  
Dew Point 35 °F    
Average Humidity 100    
Maximum Humidity 100    
Minimum Humidity 96    
Precipitation  
Precipitation 0.83 in - - ()
Sea Level Pressure  
Sea Level Pressure 29.60 in    
Wind  
Wind Speed 16 mph (NNE)    
Max Wind Speed 25 mph    
Max Gust Speed 32 mph    
Visibility 4 miles    
Events Fog , Rain , Snow    
Averages and records for this station are not official NWS values.
T = Trace of Precipitation, MM = Missing Value Source: NWS Daily Summary

Daily Weather History Graph

Daily Weather History Graph

Search for Another Location

Airport or City:

Astronomy

May. 21, 2019 Rise Set
Actual Time 5:25 AM MDT 8:10 PM MDT
Civil Twilight 4:52 AM MDT 8:43 PM MDT
Nautical Twilight 4:11 AM MDT 9:24 PM MDT
Astronomical Twilight 3:24 AM MDT 10:12 PM MDT
Moon 11:09 PM MDT (5/21) 7:42 AM MDT (5/21)
Length of Visible Light 15h 50m
Length of Day
14h 45m
Waning Gibbous, 91% of the Moon is Illuminated
May 21
Waning Gibbous
May 26
Last Quarter
Jun 3
New
Jun 10
First Quarter
Jun 17
Full

Hourly Weather History & Observations

Time (MDT) Temp. Windchill Dew Point Humidity Pressure Visibility Wind Dir Wind Speed Gust Speed Precip Events Conditions
12:09 AM 37.0 °F 27.7 °F 37.0 °F 100% 29.82 in 5.0 mi East 16.1 mph - 0.02 in Rain Light Rain
12:44 AM 37.0 °F 27.0 °F 37.0 °F 100% 29.80 in 4.0 mi East 18.4 mph - 0.03 in Rain Light Rain
12:53 AM 37.0 °F 27.0 °F 37.0 °F 100% 29.83 in 6.0 mi ENE 18.4 mph - 0.04 in Rain Light Rain
1:53 AM 37.0 °F 28.1 °F 37.0 °F 100% 29.80 in 10.0 mi ENE 15.0 mph - 0.07 in Rain Light Rain
2:04 AM 37.9 °F 28.5 °F 37.9 °F 100% 29.76 in 9.0 mi ENE 17.3 mph - 0.00 in Rain Light Rain
2:24 AM 37.9 °F 28.5 °F 37.9 °F 100% 29.76 in 10.0 mi ENE 17.3 mph - 0.01 in Rain Light Rain
2:53 AM 37.0 °F 27.4 °F 36.0 °F 96% 29.78 in 8.0 mi ENE 17.3 mph - 0.06 in Rain Light Rain
3:02 AM 36.0 °F 26.3 °F 36.0 °F 100% 29.74 in 7.0 mi ENE 16.1 mph - 0.01 in Rain Light Rain
3:14 AM 37.0 °F 28.5 °F 37.0 °F 100% 29.74 in 6.0 mi ENE 13.8 mph - 0.02 in Rain Light Rain
3:53 AM 37.9 °F 29.6 °F 37.9 °F 100% 29.76 in 9.0 mi East 13.8 mph - 0.04 in Rain Light Rain
4:53 AM 37.9 °F 29.2 °F 37.9 °F 100% 29.72 in 9.0 mi ENE 15.0 mph - 0.08 in Rain Light Rain
5:50 AM 37.4 °F 29.3 °F 37.4 °F 100% 29.70 in 2.0 mi East 12.7 mph - 0.05 in Rain Light Rain
5:53 AM 37.9 °F 30.0 °F 37.9 °F 100% 29.72 in 2.0 mi East 12.7 mph - 0.05 in Rain Light Rain
6:00 AM 37.9 °F 30.0 °F 37.9 °F 100% 29.69 in 1.8 mi East 12.7 mph - 0.00 in Rain Light Rain
6:53 AM 37.9 °F 30.0 °F 37.9 °F 100% 29.71 in 1.5 mi East 12.7 mph - 0.01 in Rain Light Rain
7:53 AM 39.0 °F 31.0 °F 39.0 °F 100% 29.70 in 1.2 mi ENE 13.8 mph - 0.01 in   Overcast
8:09 AM 39.0 °F 31.0 °F 39.0 °F 100% 29.67 in 1.5 mi ENE 13.8 mph - 0.01 in Rain Light Rain
8:46 AM 39.0 °F 31.0 °F 39.0 °F 100% 29.65 in 2.5 mi ENE 13.8 mph - 0.02 in   Overcast
8:53 AM 39.0 °F 31.0 °F 39.0 °F 100% 29.67 in 2.0 mi NE 13.8 mph - 0.02 in   Overcast
9:16 AM 39.0 °F 29.6 °F 39.0 °F 100% 29.64 in 4.0 mi ENE 18.4 mph - 0.01 in Rain Light Rain
9:43 AM 37.9 °F 29.6 °F 37.0 °F 97% 29.63 in 6.0 mi ENE 13.8 mph - 0.04 in Rain Rain
9:53 AM 37.0 °F 29.3 °F 37.0 °F 100% 29.67 in 7.0 mi ENE 11.5 mph - 0.06 in Rain Light Rain
10:11 AM 37.0 °F 28.9 °F 36.0 °F 96% 29.64 in 5.0 mi NE 12.7 mph - 0.03 in Rain Rain
10:53 AM 37.0 °F 27.4 °F 37.0 °F 100% 29.64 in 10.0 mi NE 17.3 mph - 0.09 in Rain Light Rain
11:27 AM 34.0 °F 25.5 °F 34.0 °F 100% 29.61 in 4.0 mi NNE 11.5 mph - 0.02 in Snow Light Snow
11:40 AM 34.0 °F 26.0 °F 34.0 °F 100% 29.62 in 1.8 mi NNE 10.4 mph - 0.03 in Snow Light Snow
11:53 AM 33.1 °F 25.5 °F 33.1 °F 100% 29.65 in 1.8 mi North 9.2 mph - 0.04 in Snow Light Snow
12:03 PM 33.1 °F 24.4 °F 33.1 °F 100% 29.61 in 2.0 mi North 11.5 mph - 0.01 in Snow Light Snow
12:20 PM 33.1 °F 24.4 °F 33.1 °F 100% 29.60 in 1.2 mi North 11.5 mph - 0.02 in Snow Light Snow
12:33 PM 33.1 °F 23.9 °F 33.1 °F 100% 29.59 in 0.8 mi North 12.7 mph - 0.03 in Snow Light Snow
12:53 PM 33.1 °F 23.4 °F 33.1 °F 100% 29.62 in 1.0 mi North 13.8 mph - 0.04 in Snow Light Snow
1:03 PM 33.1 °F 22.6 °F 33.1 °F 100% 29.58 in 1.2 mi North 16.1 mph - 0.00 in Snow Light Snow
1:08 PM 33.1 °F 22.6 °F 33.1 °F 100% 29.57 in 1.5 mi North 16.1 mph - 0.01 in Snow Light Snow
1:19 PM 33.1 °F 23.0 °F 33.1 °F 100% 29.56 in 2.0 mi North 15.0 mph - 0.02 in Snow Light Snow
1:27 PM 34.0 °F 23.8 °F 34.0 °F 100% 29.56 in 2.0 mi North 16.1 mph - 0.03 in Snow Light Snow
1:42 PM 33.1 °F 22.2 °F 33.1 °F 100% 29.54 in 2.5 mi North 17.3 mph - 0.04 in Snow Light Snow
1:53 PM 33.1 °F 22.6 °F 33.1 °F 100% 29.56 in 2.5 mi North 16.1 mph - 0.04 in Snow Light Snow
2:03 PM 34.0 °F 23.8 °F 34.0 °F 100% 29.54 in 5.0 mi North 16.1 mph - 0.02 in Snow Light Snow
2:15 PM 34.0 °F 24.2 °F 34.0 °F 100% 29.52 in 3.0 mi North 15.0 mph - 0.04 in Snow Light Snow
2:22 PM 34.0 °F 24.2 °F 34.0 °F 100% 29.52 in 2.0 mi North 15.0 mph - 0.05 in Snow Light Snow
2:28 PM 33.1 °F 22.2 °F 33.1 °F 100% 29.51 in 1.8 mi North 17.3 mph - 0.06 in Snow Light Snow
2:39 PM 33.1 °F 22.6 °F 33.1 °F 100% 29.50 in 1.0 mi North 16.1 mph - 0.07 in Snow Light Snow
2:53 PM 33.1 °F 23.0 °F 33.1 °F 100% 29.54 in 0.8 mi North 15.0 mph - 0.08 in Snow Light Snow
3:04 PM 33.1 °F 22.2 °F 33.1 °F 100% 29.50 in 1.0 mi North 17.3 mph - 0.01 in Snow Light Snow
3:13 PM 33.1 °F 22.6 °F 33.1 °F 100% 29.50 in 0.5 mi North 16.1 mph - 0.01 in Fog , Snow Snow
3:36 PM 33.1 °F 24.9 °F 33.1 °F 100% 29.51 in 0.5 mi North 10.4 mph - 0.01 in Fog , Snow Snow
3:53 PM 33.1 °F 23.9 °F 33.1 °F 100% 29.55 in 0.8 mi North 12.7 mph - 0.02 in Snow Light Snow
4:09 PM 33.1 °F 24.4 °F 33.1 °F 100% 29.52 in 1.0 mi North 11.5 mph - 0.00 in Snow Light Snow
4:22 PM 33.1 °F 23.9 °F 33.1 °F 100% 29.52 in 0.8 mi North 12.7 mph - 0.00 in Snow Light Snow
4:53 PM 33.1 °F 23.9 °F 33.1 °F 100% 29.56 in 0.5 mi NNW 12.7 mph - 0.01 in Fog , Snow Snow
5:50 PM 33.8 °F 23.5 °F 33.8 °F 100% 29.51 in 0.5 mi NNW 16.1 mph - 0.02 in Fog , Snow Snow
5:53 PM 33.1 °F 22.6 °F 33.1 °F 100% 29.54 in 0.5 mi NNW 16.1 mph - 0.02 in Fog , Snow Snow
6:33 PM 33.1 °F 21.5 °F 33.1 °F 100% 29.50 in 0.8 mi NNW 19.6 mph - 0.02 in Snow Light Snow
6:53 PM 33.1 °F 21.2 °F 33.1 °F 100% 29.52 in 1.0 mi NNW 20.7 mph - 0.02 in Snow Light Snow
7:40 PM 33.1 °F 20.3 °F 33.1 °F 100% 29.48 in 1.2 mi NNW 24.2 mph 29.9 mph 0.02 in Snow Light Snow
7:48 PM 33.8 °F 21.3 °F 33.8 °F 100% 29.48 in 1.5 mi NNW 24.2 mph - 0.02 in Snow Light Snow
7:53 PM 33.1 °F 20.1 °F 33.1 °F 100% 29.51 in 1.8 mi NNW 25.3 mph 31.1 mph 0.02 in Snow Light Snow
8:03 PM 33.1 °F 20.9 °F 33.1 °F 100% 29.48 in 2.5 mi NNW 21.9 mph 32.2 mph 0.00 in Snow Light Snow
8:13 PM 33.1 °F 20.3 °F 33.1 °F 100% 29.48 in 4.0 mi NNW 24.2 mph - 0.00 in Snow Light Snow
8:53 PM 33.1 °F 20.3 °F 33.1 °F 100% 29.50 in 9.0 mi NNW 24.2 mph - 0.01 in   Overcast
9:30 PM 33.1 °F 20.9 °F 33.1 °F 100% 29.47 in 10.0 mi NNW 21.9 mph - N/A   Overcast
9:53 PM 33.1 °F 21.2 °F 33.1 °F 100% 29.51 in 10.0 mi NNW 20.7 mph 27.6 mph N/A   Overcast
10:12 PM 33.1 °F 20.3 °F 33.1 °F 100% 29.47 in 10.0 mi NNW 24.2 mph - N/A   Overcast
10:36 PM 33.1 °F 20.9 °F 33.1 °F 100% 29.48 in 10.0 mi NNW 21.9 mph - N/A   Overcast
10:53 PM 33.1 °F 20.6 °F 33.1 °F 100% 29.51 in 10.0 mi NNW 23.0 mph 27.6 mph N/A   Overcast
11:53 PM 34.0 °F 22.1 °F 33.1 °F 96% 29.52 in 10.0 mi NNW 21.9 mph - 0.00 in   Overcast